Year,Month,Day,Hour,Minute,Value (Times are PST for temperature in C)
2009,09,22,00,00,11.90
2009,09,22,00,01,11.90
2009,09,22,00,02,11.90
2009,09,22,00,03,11.90
2009,09,22,00,04,11.90
2009,09,22,00,05,11.90
2009,09,22,00,06,11.90
2009,09,22,00,07,11.90
2009,09,22,00,08,11.90
2009,09,22,00,09,11.80
2009,09,22,00,10,11.80
2009,09,22,00,11,11.80
2009,09,22,00,12,11.80
2009,09,22,00,13,11.80
2009,09,22,00,14,11.80
2009,09,22,00,15,11.80
2009,09,22,00,16,11.80
2009,09,22,00,17,11.80
2009,09,22,00,18,11.80
2009,09,22,00,19,11.80
2009,09,22,00,20,11.80
2009,09,22,00,21,11.80
2009,09,22,00,22,11.80
2009,09,22,00,23,11.90
2009,09,22,00,24,11.90
2009,09,22,00,25,11.90
2009,09,22,00,26,11.90
2009,09,22,00,27,11.90
2009,09,22,00,28,11.90
2009,09,22,00,29,11.90
2009,09,22,00,30,11.90
2009,09,22,00,31,11.90
2009,09,22,00,32,11.90
2009,09,22,00,33,11.90
2009,09,22,00,34,11.90
2009,09,22,00,35,11.90
2009,09,22,00,36,11.90
2009,09,22,00,37,11.80
2009,09,22,00,38,11.80
2009,09,22,00,39,11.80
2009,09,22,00,40,11.80
2009,09,22,00,41,11.80
2009,09,22,00,42,11.80
2009,09,22,00,43,11.80
2009,09,22,00,44,11.80
2009,09,22,00,45,11.80
2009,09,22,00,46,11.80
2009,09,22,00,47,11.80
2009,09,22,00,48,11.80
2009,09,22,00,49,11.80
2009,09,22,00,50,11.80
2009,09,22,00,51,11.80
2009,09,22,00,52,11.80
2009,09,22,00,53,11.80
2009,09,22,00,54,11.80
2009,09,22,00,55,11.80
2009,09,22,00,56,11.80
2009,09,22,00,57,11.80
2009,09,22,00,58,11.80
2009,09,22,00,59,11.80
2009,09,22,01,00,11.80
2009,09,22,01,01,11.80
2009,09,22,01,02,11.80
2009,09,22,01,03,11.80
2009,09,22,01,04,11.80
2009,09,22,01,05,11.80
2009,09,22,01,06,11.80
2009,09,22,01,07,11.80
2009,09,22,01,08,11.80
2009,09,22,01,09,11.80
2009,09,22,01,10,11.80
2009,09,22,01,11,11.80
2009,09,22,01,12,11.80
2009,09,22,01,13,11.80
2009,09,22,01,14,11.80
2009,09,22,01,15,11.80
2009,09,22,01,16,11.80
2009,09,22,01,17,11.80
2009,09,22,01,18,11.80
2009,09,22,01,19,11.80
2009,09,22,01,20,11.80
2009,09,22,01,21,11.80
2009,09,22,01,22,11.70
2009,09,22,01,23,11.70
2009,09,22,01,24,11.70
2009,09,22,01,25,11.80
2009,09,22,01,26,11.80
2009,09,22,01,27,11.80
2009,09,22,01,28,11.80
2009,09,22,01,29,11.80
2009,09,22,01,30,11.80
2009,09,22,01,31,11.80
2009,09,22,01,32,11.80
2009,09,22,01,33,11.80
2009,09,22,01,34,11.80
2009,09,22,01,35,11.80
2009,09,22,01,36,11.80
2009,09,22,01,37,11.80
2009,09,22,01,38,11.80
2009,09,22,01,39,11.80
2009,09,22,01,40,11.80
2009,09,22,01,41,11.80
2009,09,22,01,42,11.80
2009,09,22,01,43,11.80
2009,09,22,01,44,11.80
2009,09,22,01,45,11.80
2009,09,22,01,46,11.80
2009,09,22,01,47,11.80
2009,09,22,01,48,11.80
2009,09,22,01,49,11.80
2009,09,22,01,50,11.80
2009,09,22,01,51,11.80
2009,09,22,01,52,11.80
2009,09,22,01,53,11.80
2009,09,22,01,54,11.80
2009,09,22,01,55,11.80
2009,09,22,01,56,11.80
2009,09,22,01,57,11.80
2009,09,22,01,58,11.80
2009,09,22,01,59,11.80
2009,09,22,02,00,11.70
2009,09,22,02,01,11.70
2009,09,22,02,02,11.70
2009,09,22,02,03,11.70
2009,09,22,02,04,11.70
2009,09,22,02,05,11.70
2009,09,22,02,06,11.70
2009,09,22,02,07,11.60
2009,09,22,02,08,11.60
2009,09,22,02,09,11.60
2009,09,22,02,10,11.60
2009,09,22,02,11,11.60
2009,09,22,02,12,11.60
2009,09,22,02,13,11.60
2009,09,22,02,14,11.60
2009,09,22,02,15,11.60
2009,09,22,02,16,11.60
2009,09,22,02,17,11.60
2009,09,22,02,18,11.60
2009,09,22,02,19,11.60
2009,09,22,02,20,11.60
2009,09,22,02,21,11.50
2009,09,22,02,22,11.40
2009,09,22,02,23,11.40
2009,09,22,02,24,11.40
2009,09,22,02,25,11.40
2009,09,22,02,26,11.40
2009,09,22,02,27,11.40
2009,09,22,02,28,11.40
2009,09,22,02,29,11.40
2009,09,22,02,30,11.40
2009,09,22,02,31,11.40
2009,09,22,02,32,11.40
2009,09,22,02,33,11.40
2009,09,22,02,34,11.40
2009,09,22,02,35,11.40
2009,09,22,02,36,11.40
2009,09,22,02,37,11.40
2009,09,22,02,38,11.40
2009,09,22,02,39,11.40
2009,09,22,02,40,11.40
2009,09,22,02,41,11.40
2009,09,22,02,42,11.40
2009,09,22,02,43,11.40
2009,09,22,02,44,11.40
2009,09,22,02,45,11.40
2009,09,22,02,46,11.60
2009,09,22,02,47,11.60
2009,09,22,02,48,11.60
2009,09,22,02,49,11.60
2009,09,22,02,50,11.60
2009,09,22,02,51,11.60
2009,09,22,02,52,11.60
2009,09,22,02,53,11.60
2009,09,22,02,54,11.60
2009,09,22,02,55,11.70
2009,09,22,02,56,11.70
2009,09,22,02,57,11.70
2009,09,22,02,58,11.80
2009,09,22,02,59,11.80
2009,09,22,03,00,11.80
2009,09,22,03,01,11.80
2009,09,22,03,02,11.80
2009,09,22,03,03,11.80
2009,09,22,03,04,11.80
2009,09,22,03,05,11.80
2009,09,22,03,06,11.70
2009,09,22,03,07,11.70
2009,09,22,03,08,11.70
2009,09,22,03,09,11.70
2009,09,22,03,10,11.70
2009,09,22,03,11,11.70
2009,09,22,03,12,11.70
2009,09,22,03,13,11.70
2009,09,22,03,14,11.70
2009,09,22,03,15,11.70
2009,09,22,03,16,11.70
2009,09,22,03,17,11.70
2009,09,22,03,18,11.70
2009,09,22,03,19,11.70
2009,09,22,03,20,11.70
2009,09,22,03,21,11.70
2009,09,22,03,22,11.70
2009,09,22,03,23,11.70
2009,09,22,03,24,11.70
2009,09,22,03,25,11.70
2009,09,22,03,26,11.70
2009,09,22,03,27,11.70
2009,09,22,03,28,11.70
2009,09,22,03,29,11.70
2009,09,22,03,30,11.80
2009,09,22,03,31,11.80
2009,09,22,03,32,11.80
2009,09,22,03,33,11.80
2009,09,22,03,34,11.80
2009,09,22,03,35,11.80
2009,09,22,03,36,11.80
2009,09,22,03,37,11.80
2009,09,22,03,38,11.80
2009,09,22,03,39,11.70
2009,09,22,03,40,11.70
2009,09,22,03,41,11.70
2009,09,22,03,42,11.70
2009,09,22,03,43,11.70
2009,09,22,03,44,11.70
2009,09,22,03,45,11.70
2009,09,22,03,46,11.70
2009,09,22,03,47,11.70
2009,09,22,03,48,11.60
2009,09,22,03,49,11.60
2009,09,22,03,50,11.60
2009,09,22,03,51,11.70
2009,09,22,03,52,11.70
2009,09,22,03,53,11.70
2009,09,22,03,54,11.80
2009,09,22,03,55,11.80
2009,09,22,03,56,11.80
2009,09,22,03,57,11.80
2009,09,22,03,58,11.90
2009,09,22,03,59,11.90
2009,09,22,04,00,11.90
2009,09,22,04,01,12.00
2009,09,22,04,02,12.00
2009,09,22,04,03,12.00
2009,09,22,04,04,12.10
2009,09,22,04,05,12.10
2009,09,22,04,06,12.10
2009,09,22,04,07,12.10
2009,09,22,04,08,12.20
2009,09,22,04,09,12.20
2009,09,22,04,10,12.20
2009,09,22,04,11,12.20
2009,09,22,04,12,12.20
2009,09,22,04,13,12.20
2009,09,22,04,14,12.20
2009,09,22,04,15,12.20
2009,09,22,04,16,12.20
2009,09,22,04,17,12.20
2009,09,22,04,18,12.10
2009,09,22,04,19,12.10
2009,09,22,04,20,12.10
2009,09,22,04,21,12.10
2009,09,22,04,22,12.10
2009,09,22,04,23,12.00
2009,09,22,04,24,12.00
2009,09,22,04,25,12.00
2009,09,22,04,26,11.90
2009,09,22,04,27,11.90
2009,09,22,04,28,11.80
2009,09,22,04,29,11.80
2009,09,22,04,30,11.80
2009,09,22,04,31,11.80
2009,09,22,04,32,11.80
2009,09,22,04,33,11.80
2009,09,22,04,34,11.70
2009,09,22,04,35,11.70
2009,09,22,04,36,11.70
2009,09,22,04,37,11.70
2009,09,22,04,38,11.70
2009,09,22,04,39,11.60
2009,09,22,04,40,11.60
2009,09,22,04,41,11.60
2009,09,22,04,42,11.60
2009,09,22,04,43,11.60
2009,09,22,04,44,11.60
2009,09,22,04,45,11.50
2009,09,22,04,46,11.40
2009,09,22,04,47,11.40
2009,09,22,04,48,11.40
2009,09,22,04,49,11.40
2009,09,22,04,50,11.40
2009,09,22,04,51,11.40
2009,09,22,04,52,11.40
2009,09,22,04,53,11.30
2009,09,22,04,54,11.30
2009,09,22,04,55,11.30
2009,09,22,04,56,11.30
2009,09,22,04,57,11.30
2009,09,22,04,58,11.30
2009,09,22,04,59,11.30
2009,09,22,05,00,11.30
2009,09,22,05,01,11.30
2009,09,22,05,02,11.30
2009,09,22,05,03,11.30
2009,09,22,05,04,11.30
2009,09,22,05,05,11.30
2009,09,22,05,06,11.20
2009,09,22,05,07,11.20
2009,09,22,05,08,11.20
2009,09,22,05,09,11.20
2009,09,22,05,10,11.10
2009,09,22,05,11,11.10
2009,09,22,05,12,11.10
2009,09,22,05,13,11.10
2009,09,22,05,14,11.10
2009,09,22,05,15,11.10
2009,09,22,05,16,11.10
2009,09,22,05,17,11.10
2009,09,22,05,18,11.10
2009,09,22,05,19,11.10
2009,09,22,05,20,11.10
2009,09,22,05,21,11.10
2009,09,22,05,22,11.10
2009,09,22,05,23,11.10
2009,09,22,05,24,11.10
2009,09,22,05,25,11.10
2009,09,22,05,26,11.10
2009,09,22,05,27,11.10
2009,09,22,05,28,11.10
2009,09,22,05,29,11.10
2009,09,22,05,30,11.10
2009,09,22,05,31,11.10
2009,09,22,05,32,11.10
2009,09,22,05,33,11.10
2009,09,22,05,34,11.10
2009,09,22,05,35,11.10
2009,09,22,05,36,11.10
2009,09,22,05,37,11.10
2009,09,22,05,38,11.10
2009,09,22,05,39,11.10
2009,09,22,05,40,11.10
2009,09,22,05,41,11.10
2009,09,22,05,42,11.10
2009,09,22,05,43,11.10
2009,09,22,05,44,11.10
2009,09,22,05,45,11.10
2009,09,22,05,46,11.10
2009,09,22,05,47,11.10
2009,09,22,05,48,11.10
2009,09,22,05,49,11.10
2009,09,22,05,50,11.10
2009,09,22,05,51,11.00
2009,09,22,05,52,11.00
2009,09,22,05,53,10.90
2009,09,22,05,54,10.90
2009,09,22,05,55,10.90
2009,09,22,05,56,10.90
2009,09,22,05,57,10.90
2009,09,22,05,58,10.90
2009,09,22,05,59,10.90
2009,09,22,06,00,10.90
2009,09,22,06,01,10.90
2009,09,22,06,02,10.90
2009,09,22,06,03,10.90
2009,09,22,06,04,10.90
2009,09,22,06,05,10.90
2009,09,22,06,06,10.90
2009,09,22,06,07,10.90
2009,09,22,06,08,10.90
2009,09,22,06,09,10.90
2009,09,22,06,10,10.90
2009,09,22,06,11,10.90
2009,09,22,06,12,10.90
2009,09,22,06,13,10.90
2009,09,22,06,14,10.90
2009,09,22,06,15,10.90
2009,09,22,06,16,10.90
2009,09,22,06,17,10.90
2009,09,22,06,18,10.90
2009,09,22,06,19,10.90
2009,09,22,06,20,10.90
2009,09,22,06,21,10.90
2009,09,22,06,22,10.90
2009,09,22,06,23,10.90
2009,09,22,06,24,10.90
2009,09,22,06,25,10.90
2009,09,22,06,26,10.90
2009,09,22,06,27,10.90
2009,09,22,06,28,10.90
2009,09,22,06,29,10.90
2009,09,22,06,30,10.90
2009,09,22,06,31,10.90
2009,09,22,06,32,10.90
2009,09,22,06,33,10.90
2009,09,22,06,34,10.80
2009,09,22,06,35,10.80
2009,09,22,06,36,10.80
2009,09,22,06,37,10.80
2009,09,22,06,38,10.80
2009,09,22,06,39,10.80
2009,09,22,06,40,10.70
2009,09,22,06,41,10.70
2009,09,22,06,42,10.70
2009,09,22,06,43,10.70
2009,09,22,06,44,10.70
2009,09,22,06,45,10.70
2009,09,22,06,46,10.70
2009,09,22,06,47,10.70
2009,09,22,06,48,10.70
2009,09,22,06,49,10.70
2009,09,22,06,50,10.70
2009,09,22,06,51,10.60
2009,09,22,06,52,10.60
2009,09,22,06,53,10.60
2009,09,22,06,54,10.60
2009,09,22,06,55,10.60
2009,09,22,06,56,10.60
2009,09,22,06,57,10.60
2009,09,22,06,58,10.60
2009,09,22,06,59,10.60
2009,09,22,07,00,10.60
2009,09,22,07,01,10.60
2009,09,22,07,02,10.60
2009,09,22,07,03,10.60
2009,09,22,07,04,10.60
2009,09,22,07,05,10.60
2009,09,22,07,06,10.60
2009,09,22,07,07,10.50
2009,09,22,07,08,10.40
2009,09,22,07,09,10.40
2009,09,22,07,10,10.40
2009,09,22,07,11,10.40
2009,09,22,07,12,10.40
2009,09,22,07,13,10.40
2009,09,22,07,14,10.40
2009,09,22,07,15,10.40
2009,09,22,07,16,10.40
2009,09,22,07,17,10.40
2009,09,22,07,18,10.40
2009,09,22,07,19,10.40
2009,09,22,07,20,10.40
2009,09,22,07,21,10.40
2009,09,22,07,22,10.40
2009,09,22,07,23,10.40
2009,09,22,07,24,10.40
2009,09,22,07,25,10.40
2009,09,22,07,26,10.40
2009,09,22,07,27,10.40
2009,09,22,07,28,10.40
2009,09,22,07,29,10.40
2009,09,22,07,30,10.40
2009,09,22,07,31,10.40
2009,09,22,07,32,10.40
2009,09,22,07,33,10.40
2009,09,22,07,34,10.40
2009,09,22,07,35,10.40
2009,09,22,07,36,10.40
2009,09,22,07,37,10.40
2009,09,22,07,38,10.40
2009,09,22,07,39,10.40
2009,09,22,07,40,10.40
2009,09,22,07,41,10.40
2009,09,22,07,42,10.40
2009,09,22,07,43,10.40
2009,09,22,07,44,10.40
2009,09,22,07,45,10.40
2009,09,22,07,46,10.40
2009,09,22,07,47,10.40
2009,09,22,07,48,10.40
2009,09,22,07,49,10.40
2009,09,22,07,50,10.40
2009,09,22,07,51,10.40
2009,09,22,07,52,10.40
2009,09,22,07,53,10.40
2009,09,22,07,54,10.40
2009,09,22,07,55,10.40
2009,09,22,07,56,10.40
2009,09,22,07,57,10.40
2009,09,22,07,58,10.40
2009,09,22,07,59,10.40
2009,09,22,08,00,10.40
2009,09,22,08,01,10.40
2009,09,22,08,02,10.50
2009,09,22,08,03,10.60
2009,09,22,08,04,10.60
2009,09,22,08,05,10.60
2009,09,22,08,06,10.60
2009,09,22,08,07,10.60
2009,09,22,08,08,10.60
2009,09,22,08,09,10.60
2009,09,22,08,10,10.60
2009,09,22,08,11,10.70
2009,09,22,08,12,10.70
2009,09,22,08,13,10.70
2009,09,22,08,14,10.80
2009,09,22,08,15,10.80
2009,09,22,08,16,10.80
2009,09,22,08,17,10.90
2009,09,22,08,18,10.90
2009,09,22,08,19,10.90
2009,09,22,08,20,10.90
2009,09,22,08,21,10.90
2009,09,22,08,22,10.90
2009,09,22,08,23,10.90
2009,09,22,08,24,11.10
2009,09,22,08,25,11.10
2009,09,22,08,26,11.10
2009,09,22,08,27,11.10
2009,09,22,08,28,11.10
2009,09,22,08,29,11.10
2009,09,22,08,30,11.20
2009,09,22,08,31,11.20
2009,09,22,08,32,11.30
2009,09,22,08,33,11.40
2009,09,22,08,34,11.40
2009,09,22,08,35,11.50
2009,09,22,08,36,11.60
2009,09,22,08,37,11.60
2009,09,22,08,38,11.70
2009,09,22,08,39,11.70
2009,09,22,08,40,11.80
2009,09,22,08,41,11.90
2009,09,22,08,42,12.10
2009,09,22,08,43,12.20
2009,09,22,08,44,12.30
2009,09,22,08,45,12.40
2009,09,22,08,46,12.60
2009,09,22,08,47,12.60
2009,09,22,08,48,12.80
2009,09,22,08,49,12.90
2009,09,22,08,50,13.00
2009,09,22,08,51,13.10
2009,09,22,08,52,13.20
2009,09,22,08,53,13.20
2009,09,22,08,54,13.30
2009,09,22,08,55,13.30
2009,09,22,08,56,13.30
2009,09,22,08,57,13.30
2009,09,22,08,58,13.30
2009,09,22,08,59,13.30
2009,09,22,09,00,13.40
2009,09,22,09,01,13.40
2009,09,22,09,02,13.40
2009,09,22,09,03,13.50
2009,09,22,09,04,13.50
2009,09,22,09,05,13.60
2009,09,22,09,06,13.60
2009,09,22,09,07,13.70
2009,09,22,09,08,13.70
2009,09,22,09,09,13.70
2009,09,22,09,10,13.80
2009,09,22,09,11,13.90
2009,09,22,09,12,14.00
2009,09,22,09,13,14.10
2009,09,22,09,14,14.20
2009,09,22,09,15,14.30
2009,09,22,09,16,14.50
2009,09,22,09,17,14.60
2009,09,22,09,18,14.70
2009,09,22,09,19,14.80
2009,09,22,09,20,14.90
2009,09,22,09,21,15.00
2009,09,22,09,22,15.20
2009,09,22,09,23,15.30
2009,09,22,09,24,15.50
2009,09,22,09,25,15.70
2009,09,22,09,26,15.90
2009,09,22,09,27,16.10
2009,09,22,09,28,16.30
2009,09,22,09,29,16.40
2009,09,22,09,30,16.50
2009,09,22,09,31,16.70
2009,09,22,09,32,16.80
2009,09,22,09,33,16.90
2009,09,22,09,34,17.00
2009,09,22,09,35,17.20
2009,09,22,09,36,17.30
2009,09,22,09,37,17.50
2009,09,22,09,38,17.50
2009,09,22,09,39,17.60
2009,09,22,09,40,17.70
2009,09,22,09,41,17.90
2009,09,22,09,42,18.00
2009,09,22,09,43,18.20
2009,09,22,09,44,18.30
2009,09,22,09,45,18.50
2009,09,22,09,46,18.60
2009,09,22,09,47,18.70
2009,09,22,09,48,18.70
2009,09,22,09,49,18.80
2009,09,22,09,50,18.90
2009,09,22,09,51,18.90
2009,09,22,09,52,19.10
2009,09,22,09,53,19.10
2009,09,22,09,54,19.20
2009,09,22,09,55,19.30
2009,09,22,09,56,19.40
2009,09,22,09,57,19.50
2009,09,22,09,58,19.60
2009,09,22,09,59,19.60
2009,09,22,10,00,19.70
2009,09,22,10,01,19.70
2009,09,22,10,02,19.80
2009,09,22,10,03,19.80
2009,09,22,10,04,19.80
2009,09,22,10,05,19.80
2009,09,22,10,06,19.90
2009,09,22,10,07,19.90
2009,09,22,10,08,19.90
2009,09,22,10,09,19.90
2009,09,22,10,10,20.00
2009,09,22,10,11,20.10
2009,09,22,10,12,20.10
2009,09,22,10,13,20.20
2009,09,22,10,14,20.20
2009,09,22,10,15,20.20
2009,09,22,10,16,20.20
2009,09,22,10,17,20.30
2009,09,22,10,18,20.30
2009,09,22,10,19,20.30
2009,09,22,10,20,20.40
2009,09,22,10,21,20.40
2009,09,22,10,22,20.40
2009,09,22,10,23,20.50
2009,09,22,10,24,20.50
2009,09,22,10,25,20.50
2009,09,22,10,26,20.60
2009,09,22,10,27,20.60
2009,09,22,10,28,20.60
2009,09,22,10,29,20.60
2009,09,22,10,30,20.60
2009,09,22,10,31,20.60
2009,09,22,10,32,20.60
2009,09,22,10,33,20.60
2009,09,22,10,34,20.60
2009,09,22,10,35,20.60
2009,09,22,10,36,20.60
2009,09,22,10,37,20.60
2009,09,22,10,38,20.60
2009,09,22,10,39,20.60
2009,09,22,10,40,20.70
2009,09,22,10,41,20.70
2009,09,22,10,42,20.60
2009,09,22,10,43,20.60
2009,09,22,10,44,20.60
2009,09,22,10,45,20.60
2009,09,22,10,46,20.60
2009,09,22,10,47,20.70
2009,09,22,10,48,20.70
2009,09,22,10,49,20.70
2009,09,22,10,50,20.70
2009,09,22,10,51,20.70
2009,09,22,10,52,20.70
2009,09,22,10,53,20.70
2009,09,22,10,54,20.70
2009,09,22,10,55,20.80
2009,09,22,10,56,20.80
2009,09,22,10,57,20.80
2009,09,22,10,58,20.80
2009,09,22,10,59,20.80
2009,09,22,11,00,20.90
2009,09,22,11,01,20.90
2009,09,22,11,02,20.90
2009,09,22,11,03,21.00
2009,09,22,11,04,20.90
2009,09,22,11,05,20.90
2009,09,22,11,06,20.90
2009,09,22,11,07,20.90
2009,09,22,11,08,20.90
2009,09,22,11,09,20.90
2009,09,22,11,10,20.90
2009,09,22,11,11,20.90
2009,09,22,11,12,21.00
2009,09,22,11,13,21.00
2009,09,22,11,14,21.00
2009,09,22,11,15,21.10
2009,09,22,11,16,21.10
2009,09,22,11,17,21.10
2009,09,22,11,18,21.10
2009,09,22,11,19,21.10
2009,09,22,11,20,21.20
2009,09,22,11,21,21.20
2009,09,22,11,22,21.20
2009,09,22,11,23,21.20
2009,09,22,11,24,21.20
2009,09,22,11,25,21.20
2009,09,22,11,26,21.20
2009,09,22,11,27,21.10
2009,09,22,11,28,21.10
2009,09,22,11,29,21.10
2009,09,22,11,30,21.10
2009,09,22,11,31,21.10
2009,09,22,11,32,21.10
2009,09,22,11,33,21.10
2009,09,22,11,34,21.10
2009,09,22,11,35,21.10
2009,09,22,11,36,21.10
2009,09,22,11,37,21.10
2009,09,22,11,38,21.10
2009,09,22,11,39,21.20
2009,09,22,11,40,21.20
2009,09,22,11,41,21.30
2009,09,22,11,42,21.30
2009,09,22,11,43,21.30
2009,09,22,11,44,21.30
2009,09,22,11,45,21.30
2009,09,22,11,46,21.30
2009,09,22,11,47,21.30
2009,09,22,11,48,21.40
2009,09,22,11,49,21.40
2009,09,22,11,50,21.50
2009,09,22,11,51,21.60
2009,09,22,11,52,21.60
2009,09,22,11,53,21.60
2009,09,22,11,54,21.60
2009,09,22,11,55,21.70
2009,09,22,11,56,21.70
2009,09,22,11,57,21.80
2009,09,22,11,58,21.80
2009,09,22,11,59,21.90
2009,09,22,12,00,21.90
2009,09,22,12,01,22.00
2009,09,22,12,02,22.00
2009,09,22,12,03,22.00
2009,09,22,12,04,22.10
2009,09,22,12,05,22.10
2009,09,22,12,06,22.10
2009,09,22,12,07,22.10
2009,09,22,12,08,22.20
2009,09,22,12,09,22.20
2009,09,22,12,10,22.30
2009,09,22,12,11,22.30
2009,09,22,12,12,22.40
2009,09,22,12,13,22.40
2009,09,22,12,14,22.40
2009,09,22,12,15,22.50
2009,09,22,12,16,22.50
2009,09,22,12,17,22.50
2009,09,22,12,18,22.60
2009,09,22,12,19,22.60
2009,09,22,12,20,22.60
2009,09,22,12,21,22.60
2009,09,22,12,22,22.60
2009,09,22,12,23,22.70
2009,09,22,12,24,22.70
2009,09,22,12,25,22.70
2009,09,22,12,26,22.80
2009,09,22,12,27,22.80
2009,09,22,12,28,22.90
2009,09,22,12,29,22.90
2009,09,22,12,30,22.90
2009,09,22,12,31,22.90
2009,09,22,12,32,22.90
2009,09,22,12,33,22.90
2009,09,22,12,34,22.90
2009,09,22,12,35,22.90
2009,09,22,12,36,22.90
2009,09,22,12,37,22.90
2009,09,22,12,38,22.90
2009,09,22,12,39,22.90
2009,09,22,12,40,22.90
2009,09,22,12,41,23.00
2009,09,22,12,42,23.10
2009,09,22,12,43,23.10
2009,09,22,12,44,23.10
2009,09,22,12,45,23.10
2009,09,22,12,46,23.10
2009,09,22,12,47,23.20
2009,09,22,12,48,23.20
2009,09,22,12,49,23.20
2009,09,22,12,50,23.20
2009,09,22,12,51,23.20
2009,09,22,12,52,23.30
2009,09,22,12,53,23.30
2009,09,22,12,54,23.30
2009,09,22,12,55,23.30
2009,09,22,12,56,23.30
2009,09,22,12,57,23.40
2009,09,22,12,58,23.40
2009,09,22,12,59,23.40
2009,09,22,13,00,23.40
2009,09,22,13,01,23.50
2009,09,22,13,02,23.60
2009,09,22,13,03,23.60
2009,09,22,13,04,23.60
2009,09,22,13,05,23.60
2009,09,22,13,06,23.70
2009,09,22,13,07,23.70
2009,09,22,13,08,23.70
2009,09,22,13,09,23.70
2009,09,22,13,10,23.70
2009,09,22,13,11,23.70
2009,09,22,13,12,23.70
2009,09,22,13,13,23.70
2009,09,22,13,14,23.70
2009,09,22,13,15,23.70
2009,09,22,13,16,23.70
2009,09,22,13,17,23.80
2009,09,22,13,18,23.80
2009,09,22,13,19,23.80
2009,09,22,13,20,23.80
2009,09,22,13,21,23.80
2009,09,22,13,22,23.90
2009,09,22,13,23,23.90
2009,09,22,13,24,23.90
2009,09,22,13,25,23.90
2009,09,22,13,26,23.90
2009,09,22,13,27,23.90
2009,09,22,13,28,24.00
2009,09,22,13,29,24.10
2009,09,22,13,30,24.10
2009,09,22,13,31,24.10
2009,09,22,13,32,24.10
2009,09,22,13,33,24.10
2009,09,22,13,34,24.20
2009,09,22,13,35,24.20
2009,09,22,13,36,24.30
2009,09,22,13,37,24.30
2009,09,22,13,38,24.30
2009,09,22,13,39,24.30
2009,09,22,13,40,24.40
2009,09,22,13,41,24.40
2009,09,22,13,42,24.40
2009,09,22,13,43,24.50
2009,09,22,13,44,24.50
2009,09,22,13,45,24.50
2009,09,22,13,46,24.60
2009,09,22,13,47,24.60
2009,09,22,13,48,24.60
2009,09,22,13,49,24.70
2009,09,22,13,50,24.70
2009,09,22,13,51,24.70
2009,09,22,13,52,24.80
2009,09,22,13,53,24.80
2009,09,22,13,54,24.80
2009,09,22,13,55,24.80
2009,09,22,13,56,24.90
2009,09,22,13,57,24.90
2009,09,22,13,58,24.90
2009,09,22,13,59,24.90
2009,09,22,14,00,24.90
2009,09,22,14,01,24.90
2009,09,22,14,02,24.90
2009,09,22,14,03,25.00
2009,09,22,14,04,25.00
2009,09,22,14,05,25.00
2009,09,22,14,06,25.10
2009,09,22,14,07,25.10
2009,09,22,14,08,25.20
2009,09,22,14,09,25.20
2009,09,22,14,10,25.30
2009,09,22,14,11,25.40
2009,09,22,14,12,25.40
2009,09,22,14,13,25.40
2009,09,22,14,14,25.40
2009,09,22,14,15,25.40
2009,09,22,14,16,25.40
2009,09,22,14,17,25.50
2009,09,22,14,18,25.50
2009,09,22,14,19,25.50
2009,09,22,14,20,25.50
2009,09,22,14,21,25.50
2009,09,22,14,22,25.50
2009,09,22,14,23,25.50
2009,09,22,14,24,25.50
2009,09,22,14,25,25.50
2009,09,22,14,26,25.60
2009,09,22,14,27,25.70
2009,09,22,14,28,25.80
2009,09,22,14,29,25.90
2009,09,22,14,30,25.90
2009,09,22,14,31,26.00
2009,09,22,14,32,26.00
2009,09,22,14,33,26.00
2009,09,22,14,34,26.00
2009,09,22,14,35,26.00
2009,09,22,14,36,25.90
2009,09,22,14,37,25.80
2009,09,22,14,38,25.80
2009,09,22,14,39,25.80
2009,09,22,14,40,25.80
2009,09,22,14,41,25.80
2009,09,22,14,42,26.00
2009,09,22,14,43,26.10
2009,09,22,14,44,26.10
2009,09,22,14,45,26.20
2009,09,22,14,46,26.20
2009,09,22,14,47,26.20
2009,09,22,14,48,26.20
2009,09,22,14,49,26.20
2009,09,22,14,50,26.20
2009,09,22,14,51,26.20
2009,09,22,14,52,26.20
2009,09,22,14,53,26.20
2009,09,22,14,54,26.20
2009,09,22,14,55,26.10
2009,09,22,14,56,26.00
2009,09,22,14,57,26.00
2009,09,22,14,58,26.00
2009,09,22,14,59,26.00
2009,09,22,15,00,26.00
2009,09,22,15,01,25.90
2009,09,22,15,02,25.90
2009,09,22,15,03,25.80
2009,09,22,15,04,25.80
2009,09,22,15,05,25.80
2009,09,22,15,06,25.80
2009,09,22,15,07,25.80
2009,09,22,15,08,25.90
2009,09,22,15,09,25.90
2009,09,22,15,10,25.90
2009,09,22,15,11,26.00
2009,09,22,15,12,26.00
2009,09,22,15,13,26.00
2009,09,22,15,14,26.00
2009,09,22,15,15,26.00
2009,09,22,15,16,26.00
2009,09,22,15,17,26.10
2009,09,22,15,18,26.20
2009,09,22,15,19,26.30
2009,09,22,15,20,26.40
2009,09,22,15,21,26.40
2009,09,22,15,22,26.40
2009,09,22,15,23,26.40
2009,09,22,15,24,26.40
2009,09,22,15,25,26.40
2009,09,22,15,26,26.40
2009,09,22,15,27,26.40
2009,09,22,15,28,26.30
2009,09,22,15,29,26.20
2009,09,22,15,30,26.10
2009,09,22,15,31,26.00
2009,09,22,15,32,25.90
2009,09,22,15,33,25.90
2009,09,22,15,34,25.80
2009,09,22,15,35,25.70
2009,09,22,15,36,25.60
2009,09,22,15,37,25.60
2009,09,22,15,38,25.60
2009,09,22,15,39,25.50
2009,09,22,15,40,25.50
2009,09,22,15,41,25.50
2009,09,22,15,42,25.40
2009,09,22,15,43,25.40
2009,09,22,15,44,25.40
2009,09,22,15,45,25.40
2009,09,22,15,46,25.40
2009,09,22,15,47,25.40
2009,09,22,15,48,25.40
2009,09,22,15,49,25.40
2009,09,22,15,50,25.40
2009,09,22,15,51,25.40
2009,09,22,15,52,25.30
2009,09,22,15,53,25.30
2009,09,22,15,54,25.30
2009,09,22,15,55,25.30
2009,09,22,15,56,25.20
2009,09,22,15,57,25.20
2009,09,22,15,58,25.20
2009,09,22,15,59,25.20
2009,09,22,16,00,25.20
2009,09,22,16,01,25.20
2009,09,22,16,02,25.20
2009,09,22,16,03,25.20
2009,09,22,16,04,25.20
2009,09,22,16,05,25.10
2009,09,22,16,06,25.10
2009,09,22,16,07,25.10
2009,09,22,16,08,25.20
2009,09,22,16,09,25.20
2009,09,22,16,10,25.20
2009,09,22,16,11,25.20
2009,09,22,16,12,25.20
2009,09,22,16,13,25.20
2009,09,22,16,14,25.20
2009,09,22,16,15,25.20
2009,09,22,16,16,25.10
2009,09,22,16,17,25.10
2009,09,22,16,18,25.10
2009,09,22,16,19,25.10
2009,09,22,16,20,25.10
2009,09,22,16,21,25.00
2009,09,22,16,22,25.00
2009,09,22,16,23,25.00
2009,09,22,16,24,25.00
2009,09,22,16,25,25.00
2009,09,22,16,26,25.00
2009,09,22,16,27,25.00
2009,09,22,16,28,24.90
2009,09,22,16,29,24.90
2009,09,22,16,30,24.90
2009,09,22,16,31,24.90
2009,09,22,16,32,24.90
2009,09,22,16,33,24.90
2009,09,22,16,34,24.90
2009,09,22,16,35,24.90
2009,09,22,16,36,24.90
2009,09,22,16,37,24.90
2009,09,22,16,38,24.90
2009,09,22,16,39,24.90
2009,09,22,16,40,24.90
2009,09,22,16,41,24.90
2009,09,22,16,42,24.90
2009,09,22,16,43,24.90
2009,09,22,16,44,24.90
2009,09,22,16,45,24.90
2009,09,22,16,46,24.90
2009,09,22,16,47,24.90
2009,09,22,16,48,24.90
2009,09,22,16,49,24.90
2009,09,22,16,50,24.90
2009,09,22,16,51,24.90
2009,09,22,16,52,24.90
2009,09,22,16,53,24.90
2009,09,22,16,54,24.90
2009,09,22,16,55,24.90
2009,09,22,16,56,24.90
2009,09,22,16,57,24.90
2009,09,22,16,58,24.90
2009,09,22,16,59,24.90
2009,09,22,17,00,24.90
2009,09,22,17,01,24.90
2009,09,22,17,02,24.90
2009,09,22,17,03,24.90
2009,09,22,17,04,24.90
2009,09,22,17,05,24.90
2009,09,22,17,06,24.90
2009,09,22,17,07,24.90
2009,09,22,17,08,24.90
2009,09,22,17,09,24.90
2009,09,22,17,10,24.90
2009,09,22,17,11,24.90
2009,09,22,17,12,24.90
2009,09,22,17,13,24.90
2009,09,22,17,14,24.90
2009,09,22,17,15,24.80
2009,09,22,17,16,24.80
2009,09,22,17,17,24.80
2009,09,22,17,18,24.80
2009,09,22,17,19,24.80